,,Stat6,,Stat2,,Stat8,,Stat9,,Stat10,,Wind1,,Wind1,
time,status,PA1M_AVG,status,PR1M_SUM,status,RH1M_AVG,status,SR1M_AVG,status,TA1M_AVG,status,W1dAve1m,status,W1sAve1m,
2008-08-13, 00:00:00,VALID,918.409,VALID,0,VALID,100,VALID,-0.0169808,VALID,19.1294,VALID,151,VALID,0,
2008-08-13, 00:01:00,VALID,918.419,VALID,0,VALID,100,VALID,-0.0169808,VALID,19.1528,VALID,173,VALID,0,
2008-08-13, 00:02:00,VALID,918.417,VALID,0,VALID,100,VALID,0.0169808,VALID,19.188,VALID,177,VALID,0,
2008-08-13, 00:03:00,VALID,918.42,VALID,0,VALID,100,VALID,-0.0339617,VALID,19.1526,VALID,177,VALID,0,
2008-08-13, 00:04:00,VALID,918.414,VALID,0,VALID,100,VALID,-0.0509425,VALID,19.0136,VALID,177,VALID,0,
2008-08-13, 00:05:00,VALID,918.415,VALID,0,VALID,100,VALID,-0.0169808,VALID,18.9709,VALID,177,VALID,0,
2008-08-13, 00:06:00,VALID,918.403,VALID,0,VALID,100,VALID,-0.0509425,VALID,18.9714,VALID,177,VALID,0,
2008-08-13, 00:07:00,VALID,918.414,VALID,0,VALID,100,VALID,0,VALID,18.9582,VALID,177,VALID,0,
2008-08-13, 00:08:00,VALID,918.402,VALID,0,VALID,100,VALID,0,VALID,18.9517,VALID,177,VALID,0,
2008-08-13, 00:09:00,VALID,918.393,VALID,0,VALID,100,VALID,-0.0339617,VALID,18.9417,VALID,177,VALID,0,
2008-08-13, 00:10:00,VALID,918.385,VALID,0,VALID,100,VALID,-0.0339617,VALID,18.9485,VALID,177,VALID,0,
2008-08-13, 00:11:00,VALID,918.378,VALID,0,VALID,100,VALID,-0.0169808,VALID,18.9841,VALID,177,VALID,0,
2008-08-13, 00:12:00,VALID,918.37,VALID,0,VALID,100,VALID,-0.0509425,VALID,19.0068,VALID,177,VALID,0,
2008-08-13, 00:13:00,VALID,918.362,VALID,0,VALID,100,VALID,0,VALID,19.0198,VALID,177,VALID,0,
2008-08-13, 00:14:00,VALID,918.341,VALID,0,VALID,100,VALID,0,VALID,19.0328,VALID,177,VALID,0,
2008-08-13, 00:15:00,VALID,918.309,VALID,0,VALID,100,VALID,-0.0509425,VALID,19.0098,VALID,177,VALID,0,
2008-08-13, 00:16:00,VALID,918.269,VALID,0,VALID,100,VALID,-0.0339617,VALID,19.0261,VALID,177,VALID,0,
2008-08-13, 00:17:00,VALID,918.246,VALID,0,VALID,100,VALID,-0.0679233,VALID,19.049,VALID,177,VALID,0,
2008-08-13, 00:18:00,VALID,918.223,VALID,0,VALID,100,VALID,-0.0339617,VALID,19.0555,VALID,177,VALID,0,
2008-08-13, 00:19:00,VALID,918.221,VALID,0,VALID,100,VALID,-0.0169808,VALID,19.0393,VALID,177,VALID,0,
2008-08-13, 00:20:00,VALID,918.222,VALID,0,VALID,100,VALID,-0.0339617,VALID,19.036,VALID,177,VALID,0,
2008-08-13, 00:21:00,VALID,918.227,VALID,0,VALID,100,VALID,0,VALID,19.0393,VALID,177,VALID,0,
2008-08-13, 00:22:00,VALID,918.212,VALID,0,VALID,100,VALID,-0.0169808,VALID,19.0458,VALID,177,VALID,0,
2008-08-13, 00:23:00,VALID,918.191,VALID,0,VALID,100,VALID,-0.0169808,VALID,19.0615,VALID,177,VALID,0,
2008-08-13, 00:24:00,VALID,918.177,VALID,0,VALID,100,VALID,-0.0169808,VALID,19.0518,VALID,177,VALID,0,
2008-08-13, 00:25:00,VALID,918.168,VALID,0,VALID,100,VALID,-0.0169808,VALID,18.922,VALID,177,VALID,0,
2008-08-13, 00:26:00,VALID,918.146,VALID,0,VALID,100,VALID,-0.0169808,VALID,18.815,VALID,177,VALID,0,
2008-08-13, 00:27:00,VALID,918.138,VALID,0,VALID,100,VALID,-0.0169808,VALID,18.815,VALID,177,VALID,0,
2008-08-13, 00:28:00,VALID,918.119,VALID,0,VALID,100,VALID,0,VALID,18.8704,VALID,177,VALID,0,
2008-08-13, 00:29:00,VALID,918.1,VALID,0,VALID,100,VALID,0,VALID,18.8609,VALID,177,VALID,0,
2008-08-13, 00:30:00,VALID,918.083,VALID,0,VALID,100,VALID,0,VALID,18.8118,VALID,177,VALID,0,
2008-08-13, 00:31:00,VALID,918.085,VALID,0,VALID,100,VALID,-0.0339617,VALID,18.7179,VALID,169,VALID,0,
2008-08-13, 00:32:00,VALID,918.07,VALID,0,VALID,100,VALID,0,VALID,18.6336,VALID,163,VALID,0,
2008-08-13, 00:33:00,VALID,918.071,VALID,0,VALID,100,VALID,-0.0169808,VALID,18.5655,VALID,116,VALID,0,
2008-08-13, 00:34:00,VALID,918.066,VALID,0,VALID,100,VALID,0,VALID,18.549,VALID,96,VALID,0,
2008-08-13, 00:35:00,VALID,918.075,VALID,0,VALID,100,VALID,0,VALID,18.5979,VALID,96,VALID,0,
2008-08-13, 00:36:00,VALID,918.093,VALID,0,VALID,100,VALID,-0.0169808,VALID,18.6436,VALID,96,VALID,0,
2008-08-13, 00:37:00,VALID,918.082,VALID,0,VALID,100,VALID,0.0169808,VALID,18.6593,VALID,96,VALID,0,
2008-08-13, 00:38:00,VALID,918.074,VALID,0,VALID,100,VALID,0,VALID,18.7214,VALID,96,VALID,0,
2008-08-13, 00:39:00,VALID,918.065,VALID,0,VALID,100,VALID,0,VALID,18.7341,VALID,96,VALID,0,
2008-08-13, 00:40:00,VALID,918.061,VALID,0,VALID,100,VALID,-0.0169808,VALID,18.7534,VALID,96,VALID,0,
2008-08-13, 00:41:00,VALID,918.053,VALID,0,VALID,100,VALID,-0.0169808,VALID,18.7561,VALID,96,VALID,0,
2008-08-13, 00:42:00,VALID,918.046,VALID,0,VALID,100,VALID,0,VALID,18.7601,VALID,96,VALID,0,
2008-08-13, 00:43:00,VALID,918.033,VALID,0,VALID,100,VALID,-0.0339617,VALID,18.7145,VALID,96,VALID,0,
2008-08-13, 00:44:00,VALID,918.021,VALID,0,VALID,100,VALID,-0.0169808,VALID,18.6039,VALID,96,VALID,0,
2008-08-13, 00:45:00,VALID,917.99,VALID,0,VALID,100,VALID,0,VALID,18.5034,VALID,96,VALID,0,
2008-08-13, 00:46:00,VALID,917.983,VALID,0,VALID,100,VALID,0,VALID,18.4777,VALID,96,VALID,0,
2008-08-13, 00:47:00,VALID,917.961,VALID,0,VALID,100,VALID,-0.0339617,VALID,18.4742,VALID,96,VALID,0,
2008-08-13, 00:48:00,VALID,917.966,VALID,0,VALID,100,VALID,-0.0509425,VALID,18.5268,VALID,96,VALID,0,
2008-08-13, 00:49:00,VALID,917.949,VALID,0,VALID,100,VALID,-0.0339617,VALID,18.543,VALID,96,VALID,0,
2008-08-13, 00:50:00,VALID,917.948,VALID,0,VALID,100,VALID,-0.0509425,VALID,18.5331,VALID,96,VALID,0,
2008-08-13, 00:51:00,VALID,917.958,VALID,0,VALID,100,VALID,0,VALID,18.5453,VALID,96,VALID,0,
2008-08-13, 00:52:00,VALID,917.957,VALID,0,VALID,100,VALID,0,VALID,18.5687,VALID,96,VALID,0,
2008-08-13, 00:53:00,VALID,917.954,VALID,0,VALID,100,VALID,0,VALID,18.5685,VALID,96,VALID,0,
2008-08-13, 00:54:00,VALID,917.962,VALID,0,VALID,100,VALID,-0.0169808,VALID,18.5523,VALID,96,VALID,0,
2008-08-13, 00:55:00,VALID,917.944,VALID,0,VALID,100,VALID,-0.0169808,VALID,18.5294,VALID,96,VALID,0,
2008-08-13, 00:56:00,VALID,917.924,VALID,0,VALID,100,VALID,-0.0169808,VALID,18.5301,VALID,96,VALID,0,
2008-08-13, 00:57:00,VALID,917.906,VALID,0,VALID,100,VALID,-0.0679233,VALID,18.5303,VALID,96,VALID,0,
2008-08-13, 00:58:00,VALID,917.891,VALID,0,VALID,100,VALID,-0.0679233,VALID,18.4914,VALID,96,VALID,0,
2008-08-13, 00:59:00,VALID,917.872,VALID,0,VALID,100,VALID,-0.0509425,VALID,18.4487,VALID,96,VALID,0,
2008-08-13, 01:00:00,VALID,917.871,VALID,0,VALID,100,VALID,-0.0339617,VALID,18.4483,VALID,96,VALID,0,
2008-08-13, 01:01:00,VALID,917.87,VALID,0,VALID,100,VALID,-0.0169808,VALID,18.4453,VALID,96,VALID,0,
2008-08-13, 01:02:00,VALID,917.888,VALID,0,VALID,100,VALID,-0.0169808,VALID,18.4291,VALID,96,VALID,0,
2008-08-13, 01:03:00,VALID,917.916,VALID,0,VALID,100,VALID,0,VALID,18.4161,VALID,96,VALID,0,
2008-08-13, 01:04:00,VALID,917.937,VALID,0,VALID,100,VALID,-0.0339617,VALID,18.4165,VALID,96,VALID,0,
2008-08-13, 01:05:00,VALID,917.955,VALID,0,VALID,100,VALID,-0.0339617,VALID,18.4256,VALID,96,VALID,0,
2008-08-13, 01:06:00,VALID,917.951,VALID,0,VALID,100,VALID,0,VALID,18.4518,VALID,96,VALID,0,
2008-08-13, 01:07:00,VALID,917.936,VALID,0,VALID,100,VALID,-0.0169808,VALID,18.4684,VALID,96,VALID,0,
2008-08-13, 01:08:00,VALID,917.922,VALID,0,VALID,100,VALID,0,VALID,18.4675,VALID,116,VALID,0,
2008-08-13, 01:09:00,VALID,917.895,VALID,0,VALID,100,VALID,-0.0169808,VALID,18.4969,VALID,133,VALID,0.271307,
2008-08-13, 01:10:00,VALID,917.862,VALID,0,VALID,100,VALID,0.0169808,VALID,18.5486,VALID,129,VALID,1.04238,
2008-08-13, 01:11:00,VALID,917.841,VALID,0,VALID,100,VALID,0,VALID,18.5945,VALID,127,VALID,1.04119,
2008-08-13, 01:12:00,VALID,917.831,VALID,0,VALID,100,VALID,0,VALID,18.6167,VALID,128,VALID,0.736471,
2008-08-13, 01:13:00,VALID,917.812,VALID,0,VALID,100,VALID,0.0339617,VALID,18.6104,VALID,128,VALID,0.622049,
2008-08-13, 01:14:00,VALID,917.801,VALID,0,VALID,100,VALID,0.0169808,VALID,18.6172,VALID,128,VALID,0.457589,
2008-08-13, 01:15:00,VALID,917.807,VALID,0,VALID,100,VALID,0.0169808,VALID,18.5975,VALID,128,VALID,0.101162,
2008-08-13, 01:16:00,VALID,917.812,VALID,0,VALID,100,VALID,0,VALID,18.5676,VALID,128,VALID,0,
2008-08-13, 01:17:00,VALID,917.825,VALID,0,VALID,100,VALID,0.0169808,VALID,18.562,VALID,128,VALID,0,
2008-08-13, 01:18:00,VALID,917.826,VALID,0,VALID,100,VALID,0.0169808,VALID,18.4904,VALID,128,VALID,0,
2008-08-13, 01:19:00,VALID,917.833,VALID,0,VALID,100,VALID,-0.0169808,VALID,18.4518,VALID,128,VALID,0,
2008-08-13, 01:20:00,VALID,917.824,VALID,0,VALID,100,VALID,-0.0849042,VALID,18.4196,VALID,128,VALID,0,
2008-08-13, 01:21:00,VALID,917.829,VALID,0,VALID,100,VALID,-0.101885,VALID,18.4135,VALID,128,VALID,0,
2008-08-13, 01:22:00,VALID,917.815,VALID,0,VALID,100,VALID,-0.101885,VALID,18.3781,VALID,128,VALID,0,
2008-08-13, 01:23:00,VALID,917.809,VALID,0,VALID,100,VALID,-0.101885,VALID,18.4265,VALID,128,VALID,0,
2008-08-13, 01:24:00,VALID,917.816,VALID,0,VALID,100,VALID,-0.101885,VALID,18.4814,VALID,128,VALID,0,
2008-08-13, 01:25:00,VALID,917.808,VALID,0,VALID,100,VALID,-0.101885,VALID,18.54,VALID,129,VALID,0,
2008-08-13, 01:26:00,VALID,917.819,VALID,0,VALID,100,VALID,-0.0849042,VALID,18.55,VALID,140,VALID,0.0381098,
2008-08-13, 01:27:00,VALID,917.831,VALID,0,VALID,100,VALID,-0.101885,VALID,18.5275,VALID,148,VALID,1.03943,
2008-08-13, 01:28:00,VALID,917.842,VALID,0,VALID,100,VALID,-0.118866,VALID,18.5016,VALID,155,VALID,1.22135,
2008-08-13, 01:29:00,VALID,917.853,VALID,0,VALID,100,VALID,-0.101885,VALID,18.4983,VALID,154,VALID,1.22085,
2008-08-13, 01:30:00,VALID,917.867,VALID,0,VALID,100,VALID,-0.101885,VALID,18.4782,VALID,147,VALID,0.992006,
2008-08-13, 01:31:00,VALID,917.862,VALID,0,VALID,100,VALID,-0.101885,VALID,18.4786,VALID,149,VALID,0.779948,
2008-08-13, 01:32:00,VALID,917.859,VALID,0,VALID,100,VALID,-0.101885,VALID,18.4687,VALID,157,VALID,0.959604,
2008-08-13, 01:33:00,VALID,917.847,VALID,0,VALID,100,VALID,-0.101885,VALID,18.5143,VALID,161,VALID,1.24983,
2008-08-13, 01:34:00,VALID,917.818,VALID,0,VALID,100,VALID,-0.101885,VALID,18.5539,VALID,161,VALID,0.963415,
2008-08-13, 01:35:00,VALID,917.776,VALID,0,VALID,100,VALID,-0.101885,VALID,18.5632,VALID,163,VALID,0.562099,
2008-08-13, 01:36:00,VALID,917.727,VALID,0,VALID,100,VALID,-0.0849042,VALID,18.5697,VALID,163,VALID,0.636814,
2008-08-13, 01:37:00,VALID,917.687,VALID,0,VALID,100,VALID,-0.118866,VALID,18.5699,VALID,163,VALID,0.32641,
2008-08-13, 01:38:00,VALID,917.657,VALID,0,VALID,100,VALID,-0.101885,VALID,18.5866,VALID,163,VALID,0,
2008-08-13, 01:39:00,VALID,917.632,VALID,0,VALID,100,VALID,-0.118866,VALID,18.5829,VALID,162,VALID,0,
2008-08-13, 01:40:00,VALID,917.625,VALID,0,VALID,100,VALID,-0.101885,VALID,18.5669,VALID,157,VALID,0.130903,
2008-08-13, 01:41:00,VALID,917.628,VALID,0,VALID,100,VALID,-0.101885,VALID,18.5602,VALID,148,VALID,0.664063,
2008-08-13, 01:42:00,VALID,917.631,VALID,0,VALID,100,VALID,-0.101885,VALID,18.5632,VALID,148,VALID,0.692224,
2008-08-13, 01:43:00,VALID,917.638,VALID,0,VALID,100,VALID,-0.101885,VALID,18.5597,VALID,147,VALID,0.683254,
2008-08-13, 01:44:00,VALID,917.631,VALID,0,VALID,100,VALID,-0.101885,VALID,18.5505,VALID,139,VALID,0.690225,
2008-08-13, 01:45:00,VALID,917.634,VALID,0,VALID,100,VALID,-0.101885,VALID,18.5148,VALID,108,VALID,0.556996,
2008-08-13, 01:46:00,VALID,917.621,VALID,0,VALID,100,VALID,-0.152827,VALID,18.4925,VALID,100,VALID,0.658118,
2008-08-13, 01:47:00,VALID,917.599,VALID,0,VALID,100,VALID,-0.101885,VALID,18.4691,VALID,100,VALID,0.511719,
2008-08-13, 01:48:00,VALID,917.578,VALID,0,VALID,100,VALID,-0.0849042,VALID,18.4789,VALID,108,VALID,0.727289,
2008-08-13, 01:49:00,VALID,917.553,VALID,0,VALID,100,VALID,-0.118866,VALID,18.4888,VALID,110,VALID,0.632449,
2008-08-13, 01:50:00,VALID,917.541,VALID,0,VALID,100,VALID,-0.0509425,VALID,18.4786,VALID,114,VALID,0.0752841,
2008-08-13, 01:51:00,VALID,917.515,VALID,0,VALID,100,VALID,0,VALID,18.4844,VALID,114,VALID,0,
2008-08-13, 01:52:00,VALID,917.51,VALID,0,VALID,100,VALID,0.0169808,VALID,18.4807,VALID,120,VALID,0,
2008-08-13, 01:53:00,VALID,917.502,VALID,0,VALID,100,VALID,-0.0169808,VALID,18.4879,VALID,123,VALID,0,
2008-08-13, 01:54:00,VALID,917.515,VALID,0,VALID,100,VALID,-0.0169808,VALID,18.4842,VALID,123,VALID,0,
2008-08-13, 01:55:00,VALID,917.531,VALID,0,VALID,100,VALID,-0.0339617,VALID,18.4879,VALID,123,VALID,0,
2008-08-13, 01:56:00,VALID,917.548,VALID,0,VALID,100,VALID,0,VALID,18.4645,VALID,123,VALID,0,
2008-08-13, 01:57:00,VALID,917.564,VALID,0,VALID,100,VALID,0,VALID,18.4295,VALID,123,VALID,0.28176,
2008-08-13, 01:58:00,VALID,917.57,VALID,0,VALID,100,VALID,-0.0339617,VALID,18.3962,VALID,127,VALID,0,
2008-08-13, 01:59:00,VALID,917.567,VALID,0,VALID,100,VALID,0,VALID,18.4089,VALID,136,VALID,0,
2008-08-13, 02:00:00,VALID,917.553,VALID,0,VALID,100,VALID,0.0169808,VALID,18.436,VALID,137,VALID,0,
2008-08-13, 02:01:00,VALID,917.543,VALID,0,VALID,100,VALID,0.0169808,VALID,18.4487,VALID,143,VALID,0,
2008-08-13, 02:02:00,VALID,917.536,VALID,0,VALID,100,VALID,-0.0339617,VALID,18.4615,VALID,161,VALID,0.030506,
2008-08-13, 02:03:00,VALID,917.507,VALID,0,VALID,100,VALID,0.0169808,VALID,18.4707,VALID,162,VALID,0,
2008-08-13, 02:04:00,VALID,917.501,VALID,0,VALID,100,VALID,-0.0169808,VALID,18.5004,VALID,157,VALID,0.0918445,
2008-08-13, 02:05:00,VALID,917.484,VALID,0,VALID,100,VALID,-0.0679233,VALID,18.524,VALID,158,VALID,0.501953,
2008-08-13, 02:06:00,VALID,917.49,VALID,0,VALID,100,VALID,-0.101885,VALID,18.5208,VALID,159,VALID,1.24442,
2008-08-13, 02:07:00,VALID,917.481,VALID,0,VALID,100,VALID,-0.101885,VALID,18.5372,VALID,166,VALID,1.31268,
2008-08-13, 02:08:00,VALID,917.498,VALID,0,VALID,100,VALID,-0.0679233,VALID,18.537,VALID,161,VALID,1.0714,
2008-08-13, 02:09:00,VALID,917.497,VALID,0,VALID,100,VALID,-0.152827,VALID,18.528,VALID,157,VALID,1.09673,
2008-08-13, 02:10:00,VALID,917.532,VALID,0,VALID,100,VALID,-0.101885,VALID,18.5148,VALID,150,VALID,0.798692,
2008-08-13, 02:11:00,VALID,917.537,VALID,0,VALID,100,VALID,-0.0849042,VALID,18.4786,VALID,138,VALID,0.777435,
2008-08-13, 02:12:00,VALID,917.551,VALID,0,VALID,100,VALID,-0.101885,VALID,18.4562,VALID,140,VALID,1.2513,
2008-08-13, 02:13:00,VALID,917.552,VALID,0,VALID,100,VALID,-0.101885,VALID,18.4427,VALID,134,VALID,1.26971,
2008-08-13, 02:14:00,VALID,917.557,VALID,0,VALID,100,VALID,-0.0849042,VALID,18.4397,VALID,135,VALID,1.30259,
2008-08-13, 02:15:00,VALID,917.538,VALID,0,VALID,100,VALID,-0.135847,VALID,18.4601,VALID,138,VALID,1.0377,
2008-08-13, 02:16:00,VALID,917.504,VALID,0,VALID,100,VALID,-0.101885,VALID,18.4627,VALID,143,VALID,1.03125,
2008-08-13, 02:17:00,VALID,917.483,VALID,0,VALID,100,VALID,-0.118866,VALID,18.4786,VALID,144,VALID,0.887576,
2008-08-13, 02:18:00,VALID,917.456,VALID,0,VALID,100,VALID,-0.135847,VALID,18.4949,VALID,147,VALID,0.702951,
2008-08-13, 02:19:00,VALID,917.442,VALID,0,VALID,100,VALID,-0.101885,VALID,18.5247,VALID,147,VALID,0.691319,
2008-08-13, 02:20:00,VALID,917.425,VALID,0,VALID,100,VALID,-0.0339617,VALID,18.5233,VALID,150,VALID,0.787109,
2008-08-13, 02:21:00,VALID,917.411,VALID,0,VALID,100,VALID,0,VALID,18.5421,VALID,150,VALID,1.14896,
2008-08-13, 02:22:00,VALID,917.384,VALID,0,VALID,100,VALID,0.0169808,VALID,18.578,VALID,156,VALID,0.977539,
2008-08-13, 02:23:00,VALID,917.379,VALID,0,VALID,100,VALID,0,VALID,18.5937,VALID,174,VALID,0.305027,
2008-08-13, 02:24:00,VALID,917.358,VALID,0,VALID,100,VALID,0.0169808,VALID,18.6037,VALID,146,VALID,0.568452,
2008-08-13, 02:25:00,VALID,917.328,VALID,0,VALID,100,VALID,0,VALID,18.6072,VALID,143,VALID,0.455566,
2008-08-13, 02:26:00,VALID,917.313,VALID,0,VALID,100,VALID,0,VALID,18.6134,VALID,151,VALID,0.705305,
2008-08-13, 02:27:00,VALID,917.295,VALID,0,VALID,100,VALID,0.0169808,VALID,18.6137,VALID,154,VALID,1.0346,
2008-08-13, 02:28:00,VALID,917.286,VALID,0,VALID,100,VALID,-0.0169808,VALID,18.61,VALID,159,VALID,0.965892,
2008-08-13, 02:29:00,VALID,917.276,VALID,0,VALID,100,VALID,0,VALID,18.6266,VALID,158,VALID,0.884301,
2008-08-13, 02:30:00,VALID,917.269,VALID,0,VALID,100,VALID,0,VALID,18.6299,VALID,162,VALID,0.890443,
2008-08-13, 02:31:00,VALID,917.25,VALID,0,VALID,100,VALID,0.0169808,VALID,18.6232,VALID,174,VALID,0.691146,
2008-08-13, 02:32:00,VALID,917.232,VALID,0,VALID,100,VALID,0,VALID,18.6236,VALID,167,VALID,0.562119,
2008-08-13, 02:33:00,VALID,917.213,VALID,0,VALID,100,VALID,0.0169808,VALID,18.594,VALID,165,VALID,0.106051,
2008-08-13, 02:34:00,VALID,917.191,VALID,0,VALID,100,VALID,0.0169808,VALID,18.5873,VALID,167,VALID,0.517987,
2008-08-13, 02:35:00,VALID,917.159,VALID,0,VALID,100,VALID,0,VALID,18.5843,VALID,167,VALID,0.696039,
2008-08-13, 02:36:00,VALID,917.14,VALID,0,VALID,100,VALID,-0.0169808,VALID,18.5873,VALID,165,VALID,0.846475,
2008-08-13, 02:37:00,VALID,917.13,VALID,0,VALID,100,VALID,-0.0169808,VALID,18.6072,VALID,156,VALID,0.771019,
2008-08-13, 02:38:00,VALID,917.126,VALID,0,VALID,100,VALID,-0.0169808,VALID,18.6,VALID,150,VALID,0.336328,
2008-08-13, 02:39:00,VALID,917.127,VALID,0,VALID,100,VALID,-0.0169808,VALID,18.588,VALID,139,VALID,0.280664,
2008-08-13, 02:40:00,VALID,917.131,VALID,0,VALID,100,VALID,0,VALID,18.578,VALID,138,VALID,0,
2008-08-13, 02:41:00,VALID,917.125,VALID,0,VALID,100,VALID,0,VALID,18.5708,VALID,141,VALID,0.00186012,
2008-08-13, 02:42:00,VALID,917.113,VALID,0,VALID,100,VALID,0,VALID,18.565,VALID,124,VALID,0.517773,
2008-08-13, 02:43:00,VALID,917.083,VALID,0,VALID,100,VALID,-0.0169808,VALID,18.5423,VALID,123,VALID,0.770894,
2008-08-13, 02:44:00,VALID,917.085,VALID,0,VALID,100,VALID,0,VALID,18.5287,VALID,126,VALID,0.979102,
2008-08-13, 02:45:00,VALID,917.065,VALID,0,VALID,100,VALID,0,VALID,18.5419,VALID,138,VALID,1.1005,
2008-08-13, 02:46:00,VALID,917.041,VALID,0,VALID,100,VALID,0,VALID,18.5518,VALID,139,VALID,0.759766,
2008-08-13, 02:47:00,VALID,917.038,VALID,0,VALID,100,VALID,0,VALID,18.5516,VALID,142,VALID,0.562137,
2008-08-13, 02:48:00,VALID,917.044,VALID,0,VALID,100,VALID,0.0169808,VALID,18.565,VALID,145,VALID,0.667081,
2008-08-13, 02:49:00,VALID,917.052,VALID,0,VALID,100,VALID,0,VALID,18.5613,VALID,151,VALID,0.44436,
2008-08-13, 02:50:00,VALID,917.069,VALID,0,VALID,100,VALID,0.0169808,VALID,18.5581,VALID,146,VALID,0.501272,
2008-08-13, 02:51:00,VALID,917.07,VALID,0,VALID,100,VALID,0,VALID,18.5581,VALID,142,VALID,0.824219,
2008-08-13, 02:52:00,VALID,917.09,VALID,0,VALID,100,VALID,0.0169808,VALID,18.5514,VALID,146,VALID,0.934956,
2008-08-13, 02:53:00,VALID,917.079,VALID,0,VALID,100,VALID,0,VALID,18.568,VALID,143,VALID,0.981105,
2008-08-13, 02:54:00,VALID,917.095,VALID,0,VALID,100,VALID,0,VALID,18.5456,VALID,135,VALID,0.853981,
2008-08-13, 02:55:00,VALID,917.108,VALID,0,VALID,100,VALID,0,VALID,18.5029,VALID,146,VALID,0.901456,
2008-08-13, 02:56:00,VALID,917.083,VALID,0,VALID,100,VALID,-0.0169808,VALID,18.4835,VALID,138,VALID,0.895089,
2008-08-13, 02:57:00,VALID,917.097,VALID,0,VALID,100,VALID,0.0169808,VALID,18.477,VALID,154,VALID,1.32958,
2008-08-13, 02:58:00,VALID,917.075,VALID,0,VALID,100,VALID,0.0169808,VALID,18.49,VALID,153,VALID,0.790396,
2008-08-13, 02:59:00,VALID,917.068,VALID,0,VALID,100,VALID,-0.0169808,VALID,18.5036,VALID,154,VALID,0.934832,
2008-08-13, 03:00:00,VALID,917.068,VALID,0,VALID,100,VALID,-0.0169808,VALID,18.5164,VALID,152,VALID,0.794457,
2008-08-13, 03:01:00,VALID,917.043,VALID,0,VALID,100,VALID,0.0169808,VALID,18.5224,VALID,149,VALID,1.02418,
2008-08-13, 03:02:00,VALID,917.04,VALID,0,VALID,100,VALID,-0.0169808,VALID,18.5254,VALID,150,VALID,0.560369,
2008-08-13, 03:03:00,VALID,917.04,VALID,0,VALID,100,VALID,0,VALID,18.5386,VALID,151,VALID,0.771662,
2008-08-13, 03:04:00,VALID,917.05,VALID,0,VALID,100,VALID,0.0169808,VALID,18.5449,VALID,135,VALID,0.698611,
2008-08-13, 03:05:00,VALID,917.036,VALID,0,VALID,100,VALID,0,VALID,18.5518,VALID,135,VALID,0.249112,
2008-08-13, 03:06:00,VALID,917.048,VALID,0,VALID,100,VALID,-0.0169808,VALID,18.5516,VALID,134,VALID,0,
2008-08-13, 03:07:00,VALID,917.045,VALID,0,VALID,100,VALID,0,VALID,18.5388,VALID,133,VALID,0.735828,
2008-08-13, 03:08:00,VALID,917.058,VALID,0,VALID,100,VALID,-0.0169808,VALID,18.5289,VALID,132,VALID,0.809451,
2008-08-13, 03:09:00,VALID,917.061,VALID,0,VALID,100,VALID,-0.0169808,VALID,18.5483,VALID,130,VALID,0.712891,
2008-08-13, 03:10:00,VALID,917.072,VALID,0,VALID,100,VALID,-0.0169808,VALID,18.5655,VALID,126,VALID,0.648438,
2008-08-13, 03:11:00,VALID,917.08,VALID,0,VALID,100,VALID,-0.0339617,VALID,18.5683,VALID,134,VALID,0.666726,
2008-08-13, 03:12:00,VALID,917.099,VALID,0,VALID,100,VALID,-0.0169808,VALID,18.5581,VALID,141,VALID,0.646763,
2008-08-13, 03:13:00,VALID,917.118,VALID,0,VALID,100,VALID,0,VALID,18.5743,VALID,143,VALID,0.157031,
2008-08-13, 03:14:00,VALID,917.126,VALID,0,VALID,100,VALID,0.0169808,VALID,18.591,VALID,144,VALID,0.230923,
2008-08-13, 03:15:00,VALID,917.123,VALID,0,VALID,100,VALID,-0.0339617,VALID,18.6007,VALID,144,VALID,0,
2008-08-13, 03:16:00,VALID,917.1,VALID,0,VALID,100,VALID,0,VALID,18.6,VALID,147,VALID,0,
2008-08-13, 03:17:00,VALID,917.08,VALID,0,VALID,100,VALID,0,VALID,18.6032,VALID,154,VALID,0,
2008-08-13, 03:18:00,VALID,917.056,VALID,0,VALID,100,VALID,0,VALID,18.6005,VALID,149,VALID,0.0491616,
2008-08-13, 03:19:00,VALID,917.028,VALID,0,VALID,100,VALID,0.0169808,VALID,18.5903,VALID,151,VALID,0.756098,
2008-08-13, 03:20:00,VALID,917.015,VALID,0,VALID,100,VALID,0,VALID,18.5773,VALID,137,VALID,0.454688,
2008-08-13, 03:21:00,VALID,917.006,VALID,0,VALID,100,VALID,0,VALID,18.5618,VALID,138,VALID,0.559375,
2008-08-13, 03:22:00,VALID,917.017,VALID,0,VALID,100,VALID,-0.0339617,VALID,18.5326,VALID,137,VALID,0.145833,
2008-08-13, 03:23:00,VALID,917.019,VALID,0,VALID,100,VALID,0,VALID,18.5064,VALID,120,VALID,0.469993,
2008-08-13, 03:24:00,VALID,917.049,VALID,0,VALID,100,VALID,0.0169808,VALID,18.4606,VALID,116,VALID,0.328497,
2008-08-13, 03:25:00,VALID,917.058,VALID,0,VALID,100,VALID,-0.0169808,VALID,18.4548,VALID,116,VALID,0.698661,
2008-08-13, 03:26:00,VALID,917.055,VALID,0,VALID,100,VALID,0.0169808,VALID,18.4446,VALID,123,VALID,0.605291,
2008-08-13, 03:27:00,VALID,917.062,VALID,0,VALID,100,VALID,0.0169808,VALID,18.4379,VALID,125,VALID,0.58718,
2008-08-13, 03:28:00,VALID,917.037,VALID,0,VALID,100,VALID,-0.0509425,VALID,18.448,VALID,143,VALID,0,
2008-08-13, 03:29:00,VALID,917.034,VALID,0,VALID,100,VALID,0,VALID,18.448,VALID,149,VALID,0,
2008-08-13, 03:30:00,VALID,917.01,VALID,0,VALID,100,VALID,0,VALID,18.4508,VALID,155,VALID,0,
2008-08-13, 03:31:00,VALID,916.985,VALID,0,VALID,100,VALID,0,VALID,18.4738,VALID,155,VALID,0,
2008-08-13, 03:32:00,VALID,916.964,VALID,0,VALID,100,VALID,0.0169808,VALID,18.4735,VALID,161,VALID,0.346475,
2008-08-13, 03:33:00,VALID,916.941,VALID,0,VALID,100,VALID,0,VALID,18.4772,VALID,152,VALID,0.225675,
2008-08-13, 03:34:00,VALID,916.926,VALID,0,VALID,100,VALID,0,VALID,18.4703,VALID,154,VALID,0.422585,
2008-08-13, 03:35:00,VALID,916.912,VALID,0,VALID,100,VALID,0,VALID,18.4543,VALID,158,VALID,0.27846,
2008-08-13, 03:36:00,VALID,916.909,VALID,0,VALID,100,VALID,-0.0169808,VALID,18.4518,VALID,130,VALID,0,
2008-08-13, 03:37:00,VALID,916.893,VALID,0,VALID,100,VALID,-0.0169808,VALID,18.4291,VALID,135,VALID,0.00838415,
2008-08-13, 03:38:00,VALID,916.903,VALID,0,VALID,100,VALID,-0.0509425,VALID,18.4124,VALID,127,VALID,0.516927,
2008-08-13, 03:39:00,VALID,916.903,VALID,0,VALID,100,VALID,-0.0339617,VALID,18.4061,VALID,127,VALID,0.121761,
2008-08-13, 03:40:00,VALID,916.907,VALID,0,VALID,100,VALID,-0.0509425,VALID,18.3867,VALID,127,VALID,0,
2008-08-13, 03:41:00,VALID,916.917,VALID,0,VALID,100,VALID,0,VALID,18.3535,VALID,127,VALID,0,
2008-08-13, 03:42:00,VALID,916.928,VALID,0,VALID,100,VALID,0,VALID,18.3443,VALID,136,VALID,0.338956,
2008-08-13, 03:43:00,VALID,916.933,VALID,0,VALID,100,VALID,-0.0169808,VALID,18.3538,VALID,142,VALID,0.11109,
2008-08-13, 03:44:00,VALID,916.927,VALID,0,VALID,100,VALID,-0.0339617,VALID,18.3702,VALID,149,VALID,0,
2008-08-13, 03:45:00,VALID,916.937,VALID,0,VALID,100,VALID,-0.0339617,VALID,18.3767,VALID,149,VALID,0,
2008-08-13, 03:46:00,VALID,916.939,VALID,0,VALID,100,VALID,0,VALID,18.3732,VALID,149,VALID,0,
2008-08-13, 03:47:00,VALID,916.934,VALID,0,VALID,100,VALID,-0.0169808,VALID,18.3867,VALID,152,VALID,0.134811,